Wind_Gust
16 20 15 16 16 20 21 15 21 12 20 20 22 21 28 23 20 24 24 27 24 24 23 18 26 30 33 30 32 31 29 22 17 11 14 25 24 27 29 29 26 26 26 23 22 21 21 20 20 21 21 21 20 20 20 19 19 19 18 18 17 16 16 16 16 17 17 17 18 17 17 17 16 16 16 15 15 15 15 15 15 16 15 15 16 16 16 17 16 16 16 16 15 14 15 14 13
21 18 17 16 17 17 12 21 22 19 21 21 20 17 21 24 25 20 26 26 23 26 18 23 30 34 31 27 23 25 30 28 22 27 24 25 26 27 26 27 26 26 23 23 21 21 21 22 21 20 21 21 20 20 19 19 19 18 18 17 16 17 16 16 16 17 18 18 17 17 17 17 17 16 16 16 15 14 13 15 15 15 15 15 15 15 15 15 16 15 16 15 14 14 14 14 13
19 19 21 18 20 20 20 18 23 18 19 21 21 26 18 21 23 21 21 19 17 21 19 20 20 19 28 24 27 23 16 16 21 22 25 24 27 21 24 26 26 25 23 21 21 21 20 21 21 20 20 20 20 20 20 19 19 18 18 17 17 17 17 17 17 17 18 19 18 18 18 18 18 17 16 16 15 14 14 13 15 16 15 14 14 14 14 14 14 14 14 14 14 14 13 13 12
17 16 19 17 20 17 23 20 20 21 24 21 22 22 27 29 25 21 17 17 15 14 19 18 23 23 26 26 26 25 17 15 18 22 28 21 25 25 26 26 24 24 22 21 20 20 20 22 20 19 20 20 19 19 19 19 19 18 18 17 16 17 17 17 17 18 18 18 19 19 19 19 18 17 17 16 16 14 14 13 14 15 15 14 14 14 13 14 14 13 13 13 13 13 13 12 11
17 16 17 17 18 19 17 19 21 18 23 18 21 21 27 27 31 31 16 12 12 12 14 22 28 26 25 23 18 18 17 17 18 16 27 23 27 26 25 24 23 23 23 22 21 20 21 22 17 17 18 19 19 19 18 19 18 18 17 17 17 17 17 18 18 18 18 19 19 19 19 18 17 17 16 16 16 15 14 13 14 14 14 14 14 13 13 13 12 11 12 12 12 12 11 10 10
19 20 17 17 17 21 26 22 22 24 22 24 26 25 25 31 34 19 14 17 12 9 13 16 25 20 22 22 23 21 14 13 19 17 26 25 27 27 25 22 23 23 23 22 20 18 22 19 17 16 17 19 19 19 18 18 18 17 17 18 18 18 18 18 19 19 19 19 19 19 18 17 16 16 16 15 15 14 13 12 11 11 12 12 12 12 11 10 10 10 12 12 12 11 10 7 7
19 17 19 19 24 20 18 21 23 25 23 22 28 27 26 31 34 15 9 16 18 12 18 24 31 27 25 24 24 24 14 18 19 22 19 25 26 25 25 24 24 25 23 22 21 20 23 15 15 16 16 18 19 18 18 18 18 18 18 18 18 19 19 19 18 19 19 18 18 18 18 17 17 16 15 14 14 13 13 13 12 12 11 10 11 10 11 10 9 10 12 12 12 10 9 8 6
14 15 13 18 23 19 23 23 24 23 25 25 26 30 30 30 32 28 12 14 13 15 15 23 24 32 20 18 18 20 17 13 21 23 26 25 23 24 24 26 26 25 24 21 20 19 20 14 14 15 16 16 18 18 18 18 18 18 19 19 19 19 18 19 18 18 18 18 18 17 16 16 16 15 15 14 14 14 13 12 12 10 10 9 9 10 10 8 8 10 11 12 11 10 9 7 7
16 17 12 19 22 27 26 27 30 27 28 24 25 25 26 31 31 31 18 13 15 15 21 25 28 29 20 22 22 15 20 20 24 26 24 23 24 23 29 25 26 26 24 23 22 18 18 14 13 15 16 16 17 18 18 19 18 18 20 20 20 19 19 18 18 17 17 16 16 16 17 16 16 15 15 14 14 14 13 12 11 10 10 9 9 9 8 8 8 9 10 11 11 10 9 7 6
20 16 15 22 20 25 24 27 28 26 30 27 29 30 35 36 29 20 12 14 16 15 20 23 26 29 23 24 22 11 19 21 25 22 21 22 22 26 25 25 29 27 24 24 22 20 17 19 13 14 14 16 16 17 18 17 18 18 19 20 19 18 18 17 16 17 16 16 16 16 16 15 15 15 15 14 14 14 13 12 11 10 9 8 8 7 8 8 8 8 9 10 10 10 9 7 5
23 20 16 23 22 27 27 26 28 25 28 29 28 28 31 29 19 11 10 13 11 24 22 30 31 30 27 21 18 14 18 20 22 24 21 22 24 26 26 28 28 25 27 25 21 19 20 19 18 13 13 14 14 15 16 17 18 18 19 19 19 18 17 17 17 17 17 17 16 17 16 16 15 15 14 14 14 13 12 12 11 10 9 8 8 7 7 7 7 7 8 8 8 8 8 7 5
22 21 20 23 24 25 26 31 29 30 29 27 29 30 25 23 16 12 13 15 14 15 20 22 28 35 25 22 15 16 18 18 21 20 21 23 29 29 27 26 25 24 25 26 24 20 20 20 18 19 18 17 16 17 16 18 18 18 18 19 18 17 16 16 16 16 16 16 16 16 16 15 15 14 14 13 12 12 12 11 10 10 9 8 8 7 6 6 6 6 6 7 7 6 7 5 5
24 18 23 29 26 25 26 29 29 29 32 32 30 40 33 32 21 12 15 12 15 18 17 24 37 25 21 20 20 17 18 19 17 17 20 23 29 28 25 24 26 25 25 24 25 23 21 20 21 20 18 20 16 17 16 17 17 18 18 19 17 17 16 16 16 16 16 15 15 15 15 14 15 14 13 13 13 12 11 10 10 10 9 8 7 7 6 6 5 4 5 6 6 5 4 4 4
26 23 23 32 26 30 31 27 27 29 28 25 26 21 28 20 17 12 12 15 14 17 25 35 29 30 28 27 20 21 20 15 19 17 20 26 26 25 25 23 23 25 24 23 24 24 21 19 18 18 20 17 18 17 16 17 17 17 18 18 17 16 16 15 15 15 15 14 14 14 15 15 14 14 14 13 12 11 10 10 9 9 8 8 7 6 6 5 4 3 4 5 6 4 5 4 4
26 22 27 29 30 29 28 34 24 28 31 32 24 14 13 10 9 13 13 14 17 28 29 25 38 28 26 26 22 25 22 19 20 19 22 25 26 24 24 25 22 23 25 23 23 21 21 19 20 20 16 17 17 14 14 17 17 17 18 18 17 16 15 15 15 14 14 14 14 13 14 14 14 15 15 14 13 12 12 11 9 8 8 7 7 6 5 5 3 3 4 5 6 5 4 5 6
24 24 28 29 31 30 32 32 24 29 33 28 24 14 11 17 15 14 12 11 18 18 24 26 22 19 28 23 30 28 27 23 19 22 24 26 24 23 24 23 22 22 24 20 19 19 19 17 18 19 16 15 13 13 14 15 16 17 18 18 17 16 15 14 15 14 14 13 13 13 12 13 13 12 15 13 13 11 9 9 8 7 7 6 6 7 6 5 4 4 4 6 7 7 6 5 6
20 24 28 29 31 29 27 31 27 35 30 30 17 14 16 16 15 15 9 11 15 22 21 25 26 29 28 23 30 32 27 21 18 21 21 22 22 20 21 19 20 18 18 17 15 17 18 18 17 17 17 14 13 14 13 15 17 18 15 17 17 16 14 14 14 14 13 12 12 11 11 10 9 9 10 10 12 12 11 9 7 8 7 7 6 6 7 6 6 6 6 6 8 8 7 6 8
23 30 29 31 28 31 24 30 31 24 29 24 24 14 16 12 17 16 13 16 19 22 34 29 22 17 25 34 34 31 29 25 22 22 23 22 20 21 19 21 21 20 19 15 14 15 15 17 18 14 13 15 14 14 13 14 16 15 15 15 14 15 13 13 13 12 12 8 11 11 9 10 9 10 8 12 9 11 11 10 8 7 7 7 6 7 7 7 8 8 8 9 10 9 8 7 8
28 27 29 32 28 29 23 27 27 32 32 33 20 10 10 9 11 14 14 11 18 24 28 30 29 31 34 34 33 30 28 24 21 20 24 22 23 21 20 20 17 18 18 20 16 16 15 14 16 16 16 15 14 11 13 14 16 13 15 15 14 12 14 14 13 15 14 11 11 13 11 10 8 8 9 11 11 9 11 10 10 10 9 9 9 8 8 9 9 9 11 11 10 12 7 8 9
29 25 29 31 24 26 26 28 33 34 32 28 18 14 12 11 13 13 13 14 19 24 31 26 31 30 31 30 30 29 26 24 20 21 21 22 22 21 19 18 20 19 21 18 16 15 17 16 16 16 18 14 14 13 11 12 12 13 14 13 11 11 11 15 15 12 14 13 9 7 8 7 7 8 11 14 13 9 8 10 10 9 9 9 9 7 8 9 10 10 10 10 7 8 8 11 12
25 31 32 27 25 28 27 33 33 32 29 21 7 8 11 12 13 12 17 16 21 21 30 33 32 33 32 30 29 28 26 24 23 21 19 21 18 20 20 19 20 20 19 21 18 15 16 15 16 16 14 13 11 13 13 12 9 11 11 12 12 11 12 10 10 9 9 9 11 6 6 6 6 8 8 9 6 4 7 7 7 7 6 7 9 7 7 11 9 10 9 9 9 9 12 12 13
23 29 28 28 27 26 29 32 34 34 23 14 12 11 15 11 16 18 19 21 21 22 29 33 36 37 37 34 31 29 28 27 24 23 23 19 19 18 18 17 16 17 18 19 18 16 17 15 14 12 11 9 11 12 13 13 13 11 11 13 12 11 12 10 8 10 8 8 7 9 10 10 9 8 8 6 5 3 3 4 4 5 5 6 8 9 8 7 10 10 10 10 10 11 14 16 13
33 26 27 29 32 33 25 26 18 17 17 15 17 15 16 17 23 17 26 22 21 24 29 35 33 33 33 32 32 28 28 26 27 29 23 22 20 19 18 18 19 18 17 19 15 14 14 13 11 12 10 12 12 11 11 11 12 12 12 13 12 11 9 10 6 8 7 5 6 8 9 9 7 6 5 4 4 4 3 5 4 4 5 6 5 9 8 7 5 7 7 10 11 11 13 13 12
29 33 23 26 29 32 28 28 26 15 12 14 16 18 24 16 18 28 34 32 36 36 39 31 29 29 29 31 26 28 25 28 30 30 29 21 19 17 17 20 17 16 17 16 17 16 15 12 10 10 11 11 11 12 10 12 10 11 11 15 9 10 12 7 9 8 7 8 6 7 9 9 8 7 5 6 11 11 8 9 6 4 6 6 7 7 8 6 7 7 8 8 6 7 7 5 8
32 35 25 24 25 29 26 27 29 14 13 15 19 19 18 13 20 22 25 33 34 33 34 31 28 27 28 27 28 28 27 27 28 21 18 19 18 18 15 15 16 19 18 15 15 13 12 12 8 11 10 9 12 15 10 11 11 10 9 7 5 7 7 10 9 8 7 7 9 7 7 7 7 5 7 8 8 8 8 7 7 6 7 7 5 7 6 7 7 7 7 8 8 7 9 10 8
32 28 26 25 26 25 26 24 25 12 13 16 18 20 16 16 25 25 22 33 31 32 32 30 26 27 30 31 30 29 28 29 25 22 18 15 17 18 15 16 18 18 17 16 12 13 14 12 10 11 8 11 10 11 10 11 8 11 12 12 6 11 8 8 7 10 8 9 7 5 6 5 6 8 8 9 8 10 11 8 6 6 12 9 7 7 9 7 8 6 7 7 6 3 4 8 9
23 27 27 28 29 27 19 22 25 17 18 15 20 19 20 19 18 20 17 18 32 30 25 23 23 27 28 27 29 29 30 25 21 19 15 13 15 18 17 15 19 18 16 13 11 12 13 12 11 12 9 12 14 17 19 20 22 21 21 20 11 11 10 11 15 15 14 11 5 5 5 6 5 8 10 8 13 16 8 6 3 5 6 7 9 10 9 6 4 4 5 5 4 4 6 7 7
26 27 30 31 32 29 23 20 20 18 24 18 17 20 20 16 23 16 14 18 25 29 26 28 31 26 25 24 22 21 25 21 21 19 21 21 23 21 14 18 21 17 16 12 12 13 12 11 15 16 14 20 23 23 23 21 20 20 22 21 17 19 19 16 19 18 15 14 15 5 3 4 5 3 6 6 7 6 6 9 10 10 9 6 7 4 7 7 5 7 7 6 6 6 8 7 8
26 29 29 24 29 43 27 26 22 21 25 20 18 22 23 17 14 12 16 18 27 28 25 24 25 23 23 24 23 21 22 19 18 17 13 14 11 17 15 18 20 16 11 13 17 19 21 19 19 17 15 15 14 13 13 13 10 9 9 10 19 20 20 20 18 17 15 17 17 17 5 3 4 5 1 2 5 7 8 8 7 8 10 8 6 6 7 7 8 8 9 8 8 9 8 10 9
24 28 26 23 26 34 30 23 23 22 24 19 21 26 22 15 13 12 10 21 26 25 25 23 24 22 20 19 23 22 18 17 19 17 11 8 8 9 13 15 15 18 15 15 18 15 10 12 13 16 14 14 12 11 12 10 9 8 8 7 9 18 18 16 19 15 18 18 16 16 18 5 3 3 3 6 9 9 8 9 6 9 9 7 8 9 10 9 8 8 8 7 9 9 9 9 10
34 25 24 28 26 33 27 31 24 25 20 20 23 26 15 12 12 9 9 15 25 25 21 23 22 20 19 19 22 23 18 16 17 14 11 9 5 9 16 19 20 19 17 14 15 13 13 10 10 12 12 11 9 8 9 9 7 7 8 6 7 6 14 12 14 14 15 16 12 15 18 10 4 4 5 4 10 9 12 9 9 9 15 6 6 7 8 8 7 6 8 8 7 8 7 9 9
28 29 34 28 28 25 25 29 29 32 28 24 25 28 15 13 13 10 6 13 24 26 25 23 21 21 21 22 25 22 18 20 22 18 15 13 11 14 17 18 17 18 17 16 15 14 15 11 11 11 10 11 9 8 8 8 7 7 7 7 7 7 11 14 17 18 16 16 13 15 18 15 6 6 7 6 7 8 10 6 6 10 11 6 6 7 7 8 8 7 6 5 7 7 7 8 8
28 32 25 30 27 28 28 28 30 32 31 27 30 24 19 13 13 11 12 16 21 26 24 23 20 21 20 22 28 25 26 18 16 22 26 22 16 17 18 17 17 17 18 16 15 14 14 14 14 13 11 10 9 8 8 7 7 8 7 8 8 9 9 14 14 14 14 13 17 16 18 9 7 9 9 10 9 9 10 11 7 7 9 8 10 10 11 10 10 9 9 9 5 6 7 8 8
32 31 30 24 27 26 33 24 32 31 31 29 32 32 15 19 18 15 13 14 18 23 24 22 19 19 20 21 19 22 23 23 22 21 18 15 16 17 18 18 17 17 16 16 15 16 16 14 13 13 11 9 10 9 8 8 7 9 9 8 8 11 10 16 19 17 16 14 18 16 13 11 12 13 13 12 13 13 13 13 13 13 11 12 10 10 11 10 9 10 10 10 10 8 8 8 9
29 25 24 28 25 25 25 35 28 31 34 31 27 28 22 23 20 16 17 15 18 22 23 23 20 20 20 18 17 15 22 24 25 24 21 17 19 20 19 17 18 17 17 15 14 14 15 12 12 13 12 10 10 11 9 8 9 9 8 8 9 10 10 13 17 20 19 11 12 11 12 12 13 13 14 13 11 12 12 13 13 12 13 11 11 12 12 12 12 12 11 11 10 9 8 7 8
27 26 27 27 27 29 31 33 25 32 31 32 26 29 25 24 21 19 16 18 20 22 22 22 22 22 22 21 19 17 18 16 14 15 11 12 14 19 20 17 16 18 17 16 16 13 15 14 11 11 11 10 9 11 10 8 8 9 10 8 11 10 11 17 15 16 15 12 13 13 12 12 12 12 13 13 13 12 11 12 12 14 12 12 13 14 12 12 13 12 12 11 11 11 10 9 10
27 26 25 29 30 27 25 29 24 32 28 29 29 24 27 25 23 22 20 19 21 24 23 22 23 23 23 21 19 20 17 16 13 14 11 11 15 16 16 16 17 17 17 16 17 15 14 16 14 13 10 9 9 10 8 9 9 10 8 9 11 8 13 17 12 10 14 18 15 13 13 13 13 13 13 13 14 13 12 11 11 12 13 13 11 11 11 10 11 10 11 10 12 13 11 12 13
27 27 27 28 29 31 25 29 25 34 25 25 27 27 20 19 21 21 18 20 20 22 24 22 22 21 22 20 20 19 18 19 19 17 16 13 15 15 15 19 19 21 16 16 16 17 13 13 13 12 9 9 9 9 9 8 6 10 11 10 12 13 17 13 14 14 17 17 15 13 12 13 14 14 13 13 13 13 13 12 11 11 11 11 9 8 9 9 10 11 12 11 11 11 11 12 16
30 29 27 27 30 29 26 29 28 34 27 21 28 29 20 19 19 15 15 16 17 17 17 21 26 21 20 22 21 19 19 19 18 19 16 17 16 15 15 13 13 15 16 15 15 17 15 13 12 12 11 10 10 9 9 10 6 8 9 11 13 14 11 13 16 15 16 16 13 13 14 14 14 15 15 14 13 13 13 13 11 11 11 10 10 10 9 12 11 10 11 12 13 10 9 10 15
31 30 29 29 23 29 31 30 28 30 27 25 30 27 20 14 14 12 11 16 15 14 15 15 17 19 23 22 22 25 22 24 22 20 19 20 18 17 16 16 16 16 16 14 13 16 14 11 11 10 11 9 9 8 8 9 10 9 10 13 12 13 17 17 17 16 15 15 14 13 14 14 14 13 13 12 12 13 12 12 12 9 11 11 11 9 10 12 12 12 12 12 11 12 14 12 15
33 32 29 27 27 30 32 25 24 31 29 37 32 25 19 14 16 17 14 16 17 17 16 13 11 15 17 19 22 25 26 23 24 22 20 20 20 19 19 17 17 17 16 16 14 13 13 12 11 12 12 11 10 10 10 10 12 10 10 9 14 16 15 15 16 16 13 13 14 13 14 12 12 11 11 11 10 10 10 10 11 10 10 12 10 10 11 12 11 11 12 13 13 13 13 13 14
32 32 30 24 23 27 31 25 27 29 28 30 30 18 16 17 19 21 19 18 18 18 17 13 12 15 17 19 24 25 22 22 24 24 23 21 21 19 18 17 16 16 19 16 13 14 15 12 12 12 12 10 10 8 9 9 9 12 11 12 14 14 15 13 13 11 11 11 13 10 12 11 11 10 10 11 12 10 10 11 11 11 11 12 10 11 11 11 12 12 13 13 13 14 14 12 16
30 35 30 30 27 26 30 27 24 25 29 31 25 24 15 17 19 19 21 20 18 15 15 16 15 14 16 17 21 22 24 24 22 22 22 22 22 22 20 17 16 14 14 14 12 13 14 13 13 14 12 10 9 8 8 10 10 10 11 11 10 13 16 14 12 11 11 11 9 10 11 9 10 10 10 10 13 13 10 11 12 13 12 10 11 12 13 11 11 12 14 15 14 14 14 14 15
37 22 27 28 28 29 32 26 23 22 20 27 26 26 21 17 19 21 20 21 20 16 16 16 15 16 16 15 19 21 25 21 24 23 23 23 23 23 21 20 18 20 15 11 11 12 14 12 11 13 13 14 10 9 8 8 10 12 16 15 14 13 14 14 12 12 12 11 11 9 9 10 11 11 12 12 13 14 13 11 13 12 12 12 12 12 11 11 12 14 16 15 15 15 13 14 12
30 22 24 30 29 27 27 28 26 23 25 26 30 27 21 18 17 20 22 23 22 22 23 21 19 18 19 18 16 23 22 22 22 23 22 23 22 20 21 21 20 16 11 11 10 12 13 16 17 15 15 14 12 12 13 12 12 13 14 14 14 12 15 15 13 12 14 10 11 9 9 10 11 12 14 13 13 14 14 12 12 13 12 11 11 12 11 13 14 14 14 16 15 15 15 13 14
27 23 30 29 27 26 28 27 28 25 27 24 26 27 30 20 24 22 22 21 25 27 25 28 25 21 19 22 23 23 22 21 21 22 21 21 20 21 21 22 21 17 10 10 11 12 13 15 18 17 16 13 12 13 15 15 14 14 13 13 14 12 13 14 12 12 11 8 9 8 7 8 10 13 13 13 13 13 12 12 12 12 11 11 12 12 10 11 14 14 13 13 14 12 11 10 14
20 26 27 33 28 22 22 24 30 24 25 25 24 27 26 20 26 29 30 34 31 24 22 26 24 20 21 20 24 24 21 22 23 22 19 22 21 23 22 23 21 16 11 11 12 14 14 16 18 18 14 13 12 13 15 14 13 13 13 12 13 13 12 13 13 10 11 9 9 8 8 10 11 12 12 11 12 11 12 12 11 12 12 11 12 11 10 10 11 11 9 9 9 8 7 8 9
30 32 24 22 23 21 19 16 8 20 24 20 27 28 27 25 19 24 26 19 29 33 30 29 28 29 31 28 25 25 22 22 22 21 22 22 20 21 21 21 20 17 12 13 15 15 16 17 16 15 14 11 10 11 13 13 14 14 12 12 10 10 11 13 14 10 10 10 9 9 9 12 12 11 10 10 11 11 11 11 11 10 11 10 10 9 10 9 9 9 7 7 7 8 7 8 8
35 30 30 25 28 27 25 20 20 23 25 20 27 27 26 30 26 36 34 27 31 30 33 35 32 31 31 29 27 24 25 22 25 22 22 22 25 25 23 22 20 16 15 15 17 16 16 15 14 14 12 10 12 13 14 13 12 12 13 13 12 11 9 12 11 9 9 9 8 10 11 11 11 12 11 10 8 10 10 10 10 10 10 10 9 9 10 10 10 11 10 8 8 8 11 10 11
33 35 28 29 33 29 21 24 23 23 26 23 25 22 31 11 23 36 36 32 37 33 29 32 31 31 31 30 28 26 26 25 23 21 22 20 22 23 22 19 17 17 17 18 16 16 15 14 13 13 12 11 12 13 12 13 13 13 13 14 14 13 12 12 12 12 12 11 12 13 11 12 12 10 10 9 8 9 10 10 10 10 10 9 10 9 9 10 9 11 10 11 9 8 12 11 11
32 25 29 24 27 33 23 28 26 23 17 25 26 18 15 15 13 35 31 29 31 30 29 28 28 27 27 28 29 28 29 25 24 23 22 22 22 20 19 18 15 16 19 18 16 16 15 14 13 13 13 14 13 13 14 14 14 13 13 14 14 12 12 13 11 10 11 12 12 14 12 13 12 10 10 9 10 9 8 10 10 10 10 9 9 10 11 11 9 11 11 11 11 9 12 12 11
27 27 24 26 30 22 25 16 16 17 20 18 21 19 7 14 23 24 25 31 32 32 32 28 28 27 29 28 29 28 29 28 27 23 22 22 21 19 18 17 17 17 17 16 17 16 15 15 13 13 14 13 13 14 14 14 12 12 12 12 13 12 12 12 12 11 11 11 13 13 13 12 10 9 8 9 8 8 8 10 11 11 11 10 10 10 11 11 11 12 12 12 11 9 11 11 10
30 29 35 31 23 22 15 10 12 9 8 19 10 23 18 19 22 25 30 33 34 34 32 30 29 29 29 27 27 27 28 28 26 25 23 24 19 18 17 17 17 16 16 15 16 16 15 15 14 15 14 12 13 13 12 11 11 11 11 11 11 11 11 11 12 11 11 12 11 12 12 9 8 8 8 7 8 7 8 9 10 10 11 10 11 11 11 11 11 11 11 11 11 10 11 9 10
28 32 27 25 24 23 20 20 14 13 18 17 18 24 17 20 20 22 31 32 34 33 37 33 27 29 27 25 26 27 27 26 26 24 22 23 22 22 20 17 17 17 17 17 16 14 15 14 14 15 15 15 13 13 12 12 12 12 12 12 11 11 12 11 11 11 10 10 10 10 8 8 8 8 8 8 8 9 8 10 9 10 10 11 11 11 10 10 9 11 10 10 10 10 11 11 11
26 28 18 33 24 24 26 18 16 21 21 18 21 23 24 23 25 25 27 33 31 38 35 32 31 30 27 25 26 28 26 26 27 27 24 22 21 21 21 19 18 17 17 17 18 18 16 13 15 15 16 14 13 13 11 12 11 11 11 11 11 12 12 12 10 9 9 13 11 10 9 8 8 7 8 7 9 10 11 11 10 10 11 12 12 12 11 11 8 9 9 9 10 9 10 9 11
30 22 30 25 20 22 21 25 15 21 15 15 19 21 19 25 35 33 36 32 35 37 34 32 35 32 29 26 29 30 27 26 24 25 24 24 21 22 22 21 22 21 20 18 18 18 17 15 16 15 15 15 14 13 12 12 12 13 13 12 10 12 12 12 12 14 12 12 13 11 10 8 8 9 9 10 10 10 10 12 12 13 13 13 14 13 13 11 11 7 8 9 9 8 9 10 9
31 28 30 33 29 14 21 17 26 23 19 19 17 17 20 16 26 37 38 36 41 41 35 30 31 31 28 26 30 29 27 26 25 24 24 24 22 21 21 21 23 19 18 17 17 19 18 18 16 16 16 16 16 14 11 10 12 13 12 12 11 10 11 12 12 11 12 11 10 10 9 9 9 8 8 10 11 12 13 13 13 14 14 13 13 14 13 11 11 10 7 7 7 9 9 8 9
26 23 21 25 26 24 25 24 27 30 19 18 19 18 11 12 15 33 35 38 45 37 35 30 30 31 28 28 26 27 26 23 24 23 22 23 20 21 20 20 19 20 19 17 17 19 19 18 19 20 19 17 17 18 16 14 13 14 12 12 12 12 13 13 12 11 12 12 11 10 9 9 9 9 9 11 12 12 12 13 13 14 14 13 13 13 12 11 12 13 8 9 7 9 9 8 10
Wind_Speed
9 9 9 10 8 5 5 1 3 1 1 4 6 4 7 6 4 4 5 5 8 4 8 12 14 9 9 10 17 11 6 2 3 2 3 4 9 15 17 17 16 15 14 10 8 8 10 13 15 15 16 15 15 16 16 15 15 16 15 15 14 13 13 13 12 13 14 14 14 13 13 13 13 13 12 12 12 12 11 12 12 12 12 12 12 12 12 13 13 12 11 11 11 10 10 9 8
6 8 9 7 5 2 2 2 0 2 2 4 9 7 6 8 12 4 6 6 3 3 9 14 16 18 20 18 15 14 10 7 7 8 9 12 15 12 15 16 16 16 13 10 8 8 8 10 16 14 15 16 16 16 16 16 15 15 15 14 13 14 13 13 12 13 13 14 14 14 14 14 13 13 13 12 12 11 10 11 11 11 11 11 11 11 12 12 12 11 11 11 11 9 9 9 7
7 6 9 7 2 4 1 1 1 1 3 5 7 7 7 10 7 5 6 3 3 6 10 10 13 10 11 9 9 7 1 7 12 12 9 14 15 9 13 15 15 16 15 10 9 8 7 9 16 16 15 15 15 16 16 16 15 15 15 14 14 13 14 14 13 13 14 14 14 15 15 14 13 13 13 12 12 11 11 11 10 10 10 10 11 11 10 10 11 11 10 10 10 9 9 8 7
5 3 3 3 4 1 0 1 1 2 2 6 8 7 7 8 9 3 5 3 4 5 6 8 10 2 14 13 10 11 7 6 8 13 8 7 10 14 14 15 15 13 12 10 9 8 6 11 15 15 16 15 15 16 16 16 15 15 14 14 13 14 14 14 14 14 13 14 15 15 15 15 13 13 12 13 12 11 11 10 10 11 10 10 10 10 10 10 10 9 9 9 10 9 8 7 6
4 5 3 1 2 2 2 1 2 1 4 2 6 9 12 9 11 12 2 1 4 6 6 10 6 7 11 12 5 3 3 10 10 7 8 10 16 15 15 15 14 13 11 11 9 8 7 15 12 13 14 15 14 15 15 15 15 14 14 13 14 14 14 14 14 14 14 14 14 15 15 14 14 13 13 13 12 11 11 11 11 11 11 10 10 10 10 9 8 8 9 9 8 8 7 6 5
8 6 2 2 1 0 0 2 3 6 7 5 7 8 8 13 14 6 0 7 4 4 7 10 9 6 6 6 3 5 8 5 9 8 11 11 17 18 17 14 14 13 12 11 9 7 7 14 13 12 13 14 14 14 14 14 14 14 14 14 14 15 14 15 15 15 14 14 14 14 14 13 13 12 11 11 11 10 9 9 9 9 9 9 9 9 8 7 7 8 9 9 8 7 6 3 3
3 5 1 2 2 1 3 3 6 6 7 6 6 6 7 11 15 8 1 2 1 4 13 13 19 15 11 3 8 4 5 11 8 9 10 15 16 16 15 14 15 14 14 11 9 8 10 11 11 12 12 13 13 13 14 14 14 14 14 14 15 14 15 15 15 14 14 14 14 14 13 13 12 11 11 11 10 9 9 9 8 8 7 7 7 8 8 6 6 8 9 9 8 7 5 4 1
3 0 2 1 2 1 1 4 6 4 6 8 8 11 13 14 13 14 3 3 3 1 8 14 11 16 8 6 6 0 6 6 14 15 17 15 15 16 16 15 15 14 13 11 9 8 13 10 11 11 12 12 13 13 13 14 14 14 14 14 15 15 14 15 14 14 14 14 14 13 13 12 12 12 11 11 10 9 8 8 7 6 6 6 6 7 6 5 6 7 8 9 8 7 5 4 2
2 2 2 2 2 1 3 6 7 5 9 13 14 13 13 11 14 12 10 2 3 1 15 15 15 13 5 12 7 4 8 13 16 18 16 16 16 16 13 15 15 12 13 11 10 8 7 10 9 10 12 12 13 14 13 14 14 14 14 14 15 14 14 14 14 13 13 12 12 13 13 12 12 12 11 11 10 9 8 7 7 6 6 6 6 6 5 5 5 7 7 8 8 7 6 4 2
2 2 2 2 2 5 4 5 4 5 6 9 11 13 13 14 13 13 2 6 1 4 12 9 12 13 14 14 10 3 6 15 17 15 14 15 15 18 16 16 16 16 13 11 10 9 6 13 10 10 11 11 12 13 13 13 14 14 14 14 13 13 13 12 12 12 12 12 13 12 12 12 12 11 11 10 10 9 8 7 6 6 5 5 5 5 5 5 5 6 7 7 7 7 6 5 3
2 3 2 0 3 5 5 7 7 6 8 7 11 14 14 15 10 4 3 2 4 3 14 21 14 17 14 7 3 4 10 14 15 15 12 11 16 16 16 15 15 16 14 12 11 9 8 8 13 10 10 10 10 11 11 11 12 12 12 12 12 12 13 12 13 13 12 12 12 12 12 12 11 11 11 10 10 9 8 7 7 6 5 5 5 4 4 4 3 4 6 6 6 6 5 4 3
2 2 3 4 6 6 5 5 6 7 8 9 12 13 7 13 5 4 2 2 0 3 13 10 8 16 11 9 4 8 12 10 10 12 10 15 16 18 15 12 14 13 14 13 11 9 8 7 7 12 12 11 11 12 11 12 12 13 12 12 12 13 12 12 12 12 12 12 12 11 11 11 11 11 10 9 9 9 8 7 6 6 6 5 5 4 3 3 2 3 4 5 5 4 3 2 3
3 2 3 3 3 5 7 7 8 10 9 9 12 13 7 6 4 6 3 1 1 1 1 15 19 11 6 5 3 6 12 10 10 8 12 15 15 14 14 14 13 13 12 11 12 10 9 7 7 7 10 14 11 11 12 13 12 12 12 12 12 12 12 11 11 11 11 11 11 11 11 11 11 10 9 9 9 8 7 7 7 6 5 5 5 4 4 2 2 2 3 4 4 3 3 2 1
4 4 1 4 2 4 5 4 3 6 7 5 9 9 8 1 1 1 0 1 2 0 9 22 12 19 10 9 4 7 7 10 11 8 10 18 15 14 16 13 13 12 12 10 11 10 8 7 7 7 8 7 7 10 13 13 12 11 11 11 10 10 10 11 11 10 10 10 10 11 11 11 11 10 9 9 9 7 7 6 6 5 5 5 5 4 3 2 1 1 2 2 3 2 3 2 2
6 2 3 2 4 3 3 7 4 6 6 8 10 9 2 3 3 1 3 1 5 14 8 5 12 15 9 14 6 9 10 13 11 12 15 16 17 16 15 13 12 12 11 10 10 9 8 7 7 7 7 6 6 5 5 10 14 13 11 11 10 9 9 10 10 9 9 9 10 9 9 10 10 10 9 9 8 7 7 6 5 4 4 4 4 3 2 2 1 0 2 2 2 2 2 3 4
5 3 2 4 6 6 4 7 5 10 10 9 14 3 5 3 3 2 0 3 7 9 14 4 3 2 15 14 18 14 15 14 12 13 16 18 16 15 14 13 12 11 10 10 8 7 7 7 6 6 6 6 6 5 6 6 11 13 11 10 10 9 9 8 9 8 8 8 8 9 9 6 7 6 9 6 8 7 6 3 4 4 4 4 3 3 3 2 2 1 2 3 3 2 3 3 4
3 4 5 4 7 7 4 6 4 8 5 6 11 2 4 2 4 1 2 7 7 5 5 6 2 9 18 8 19 17 16 14 13 14 14 13 12 10 10 9 10 9 7 8 8 8 7 7 6 5 6 6 7 6 6 6 8 12 10 10 9 8 8 7 6 7 6 6 6 7 5 2 1 2 4 2 6 3 6 5 4 3 3 3 3 3 3 2 3 4 4 4 5 3 3 4 5
3 6 7 8 6 9 5 8 5 5 8 9 16 5 2 3 4 1 2 4 13 11 9 8 11 9 11 15 19 18 18 16 15 15 12 12 10 10 8 8 10 10 9 8 8 8 8 7 6 6 5 7 6 6 5 5 5 7 5 4 3 4 5 6 4 2 4 2 5 4 3 3 3 2 3 5 2 3 4 5 4 3 2 1 1 3 3 3 4 5 6 6 6 4 4 2 3
7 4 6 12 6 6 5 6 10 9 11 11 12 2 2 2 2 0 1 2 12 13 9 12 16 16 16 16 17 18 18 16 15 13 15 15 13 12 9 8 9 10 9 8 8 10 9 6 7 6 6 8 7 6 5 5 6 4 4 3 3 5 4 4 3 4 3 4 3 3 4 4 3 3 3 4 3 4 3 5 4 3 2 2 3 3 3 4 5 7 7 7 7 6 3 3 3
8 5 9 9 4 6 11 11 12 12 9 15 2 2 1 4 2 3 2 1 13 14 11 12 16 16 15 14 15 16 17 17 14 15 14 15 14 13 11 10 10 9 10 9 8 7 8 8 8 7 8 7 7 7 6 5 5 6 5 4 5 4 4 4 3 3 3 3 3 3 5 4 3 5 7 8 6 3 2 3 4 3 3 3 4 3 4 5 6 7 8 8 6 4 3 5 4
4 9 7 4 8 10 11 12 13 15 15 12 4 0 2 1 4 4 1 4 2 11 18 21 19 20 19 17 17 16 16 15 14 13 13 13 12 10 9 10 10 8 5 5 4 5 8 7 8 8 8 6 6 7 7 6 6 6 6 6 7 6 6 5 4 4 5 4 4 3 2 2 3 4 4 5 3 2 2 1 1 1 1 2 4 2 3 4 4 4 4 5 5 4 5 5 4
3 11 11 7 5 7 10 14 19 16 14 5 1 4 1 1 0 2 4 7 6 10 12 21 23 24 23 20 15 14 15 13 13 9 13 8 7 5 7 4 8 7 7 8 9 8 10 8 9 7 7 6 7 7 7 7 6 6 6 7 6 6 6 6 4 6 4 4 2 5 4 4 3 3 3 3 1 1 2 1 3 2 2 3 2 4 4 4 4 4 4 4 5 4 5 5 5
10 6 8 13 12 11 8 13 10 6 3 3 2 2 1 3 4 6 19 10 3 10 15 14 17 13 12 11 11 10 11 13 18 19 13 12 12 12 10 7 3 8 5 6 7 8 8 9 7 8 6 7 8 7 7 6 7 7 7 7 7 6 6 6 5 4 4 3 4 5 4 3 3 2 3 2 1 1 0 0 1 1 2 2 1 2 3 4 4 5 4 5 5 5 4 5 6
11 9 7 12 11 14 15 18 15 8 5 0 1 3 3 4 3 14 14 13 20 21 21 18 17 15 15 17 16 15 14 16 15 14 9 9 11 6 5 2 4 3 8 8 8 7 8 8 7 7 7 7 7 8 6 6 6 6 6 8 5 6 6 4 5 5 4 5 4 4 3 2 4 1 1 0 1 3 3 2 3 1 2 2 2 3 4 4 4 4 3 3 3 4 3 3 3
13 12 9 8 12 13 16 16 17 11 5 2 5 3 1 1 4 13 7 13 22 22 23 21 17 15 13 16 18 17 19 17 11 10 9 9 12 13 7 2 2 5 8 8 8 7 7 7 6 7 7 6 8 8 6 6 5 5 3 3 1 1 4 5 5 5 5 4 3 4 3 3 1 1 1 1 1 3 3 2 2 3 3 3 2 3 4 4 4 4 4 4 4 2 2 3 2
13 13 10 10 10 10 13 14 17 5 3 1 1 4 4 1 18 11 5 7 9 21 18 18 19 17 12 12 10 12 14 19 14 12 11 10 11 12 11 11 8 9 9 8 6 7 7 6 5 6 5 6 6 7 5 5 3 6 6 6 3 5 5 4 5 6 5 2 1 1 2 3 4 5 3 1 1 3 3 2 3 3 3 2 2 4 3 3 5 4 4 4 4 2 3 5 3
10 13 11 12 13 14 13 9 14 8 5 6 2 1 2 2 4 4 2 6 12 20 17 12 16 17 13 12 11 13 14 11 11 9 9 9 8 11 11 10 10 11 10 7 6 7 7 5 3 5 6 7 7 7 5 4 4 5 5 2 2 5 5 6 8 8 7 5 2 2 2 3 3 3 3 4 2 2 3 1 1 2 1 1 3 3 3 3 3 3 3 4 3 3 4 5 5
11 11 16 12 11 11 15 12 7 3 2 7 4 3 1 2 5 7 4 5 11 19 16 14 14 14 14 12 12 13 16 13 12 12 14 12 8 9 9 10 13 11 10 8 6 5 6 5 6 6 6 8 8 6 4 4 5 5 4 4 5 5 6 6 6 4 3 5 9 3 1 2 1 1 3 4 4 3 0 3 3 4 3 1 4 3 1 3 3 3 4 4 3 3 4 5 5
11 13 9 15 17 14 17 13 7 4 1 7 4 1 2 7 6 4 7 5 11 17 15 14 14 14 14 12 9 7 12 12 10 7 5 4 5 4 9 12 12 9 6 8 8 8 6 3 7 6 7 8 8 6 3 4 5 5 5 4 4 5 5 5 4 1 4 5 6 10 4 2 1 0 0 2 1 4 2 2 3 3 4 4 4 4 4 4 5 5 5 5 5 5 5 6 5
11 7 9 7 8 14 18 12 10 5 4 5 8 5 1 7 9 6 7 9 12 15 13 12 11 12 11 12 11 9 7 10 9 9 7 6 3 5 8 10 10 11 8 6 9 8 5 3 5 6 7 8 7 4 3 4 4 5 4 4 3 4 4 4 3 4 4 5 6 8 12 5 1 1 2 4 5 5 4 4 4 5 6 4 5 6 6 5 5 5 5 5 5 5 6 6 6
11 7 5 6 7 5 4 5 4 9 5 7 10 7 3 7 4 5 5 5 16 13 10 11 11 11 11 11 10 10 7 6 10 9 8 6 2 3 6 9 11 11 9 6 8 8 7 5 4 6 7 7 6 4 4 5 4 4 5 4 4 3 4 4 4 5 4 5 4 4 6 7 1 1 2 2 6 4 3 4 5 3 5 2 4 4 5 5 5 3 4 5 4 5 4 5 5
7 6 9 4 7 3 6 6 7 11 3 10 5 6 7 6 6 5 4 4 13 14 10 10 11 11 12 11 11 10 9 8 9 9 10 9 7 6 8 10 10 12 11 8 8 8 8 6 7 7 6 7 5 5 4 5 4 5 4 4 4 4 4 5 5 3 2 3 5 2 7 10 4 4 3 3 4 4 5 2 1 1 5 1 4 4 4 5 5 4 4 3 3 4 4 5 5
4 10 5 7 8 4 3 7 8 10 4 8 11 2 9 3 5 5 9 10 13 15 11 10 11 12 12 11 10 10 10 6 6 5 9 13 11 7 7 9 9 11 12 10 10 9 9 8 8 9 8 7 6 5 5 4 4 5 4 4 5 5 4 5 4 3 3 4 6 3 7 5 2 6 6 6 6 5 3 2 4 3 4 6 6 6 6 6 6 5 5 5 4 4 4 4 5
7 6 6 5 6 4 4 3 8 11 12 6 13 7 4 9 8 8 8 9 12 14 11 11 10 9 11 11 10 11 10 10 10 8 4 4 8 8 5 8 8 8 9 10 10 10 10 8 8 8 7 6 5 6 5 5 4 6 5 5 4 6 6 4 4 4 2 3 3 0 7 5 7 7 7 7 7 7 6 5 6 6 5 6 6 6 5 6 5 5 6 5 6 5 5 5 5
8 4 6 3 4 6 8 9 10 7 15 14 9 7 11 13 9 8 10 8 12 13 11 11 10 10 10 11 10 10 9 6 3 0 2 2 6 6 6 8 8 7 6 8 8 8 8 7 7 8 8 6 5 5 5 5 5 5 5 5 6 6 5 5 5 5 3 3 5 4 3 5 6 7 7 7 6 6 6 6 6 5 5 5 5 5 6 6 6 6 6 5 5 5 3 4 5
8 7 5 5 6 8 8 11 12 9 12 15 10 9 11 13 11 10 11 11 12 12 11 10 9 9 8 8 8 6 6 5 5 6 5 5 4 5 6 7 6 6 5 6 7 8 8 7 7 7 7 6 5 4 4 4 5 5 6 5 6 5 5 5 5 4 2 6 8 7 7 6 6 7 7 8 7 6 6 6 6 5 5 5 5 6 5 6 6 6 7 5 6 6 5 5 6
7 8 6 9 10 6 7 10 10 12 10 16 7 15 11 9 10 10 10 11 11 12 12 11 11 10 9 8 7 7 6 7 7 6 7 6 6 6 6 7 6 6 5 5 6 7 8 8 8 8 6 6 5 5 4 5 5 5 4 5 6 4 5 5 5 5 7 9 9 8 7 6 7 7 7 7 8 7 7 5 6 7 7 6 5 5 5 5 5 4 4 4 5 6 5 7 8
9 9 11 9 11 10 9 10 13 10 7 9 12 15 12 10 8 8 8 13 11 11 12 12 12 12 10 11 8 7 8 7 8 7 9 7 5 5 5 6 5 7 4 4 5 7 7 7 8 7 6 5 5 5 4 3 2 4 6 4 5 5 4 4 7 7 9 9 9 8 6 6 6 7 6 6 7 7 6 6 6 6 6 5 5 4 4 5 6 6 5 5 5 5 4 7 8
14 8 9 7 10 11 11 15 15 8 10 9 18 15 10 10 8 5 8 10 9 9 9 12 14 13 11 9 9 9 10 10 8 7 8 7 6 5 5 4 4 4 4 3 3 5 7 8 7 6 5 5 4 4 5 4 2 3 4 3 5 5 3 6 8 8 9 9 8 6 6 6 6 7 6 6 6 6 6 6 5 4 4 4 5 6 6 7 6 6 7 6 6 4 4 5 9
10 9 5 9 8 11 9 11 18 9 8 11 14 16 8 8 6 6 7 9 8 8 9 10 9 11 10 10 9 10 12 10 9 7 9 9 6 5 5 4 5 5 4 3 3 5 5 6 6 5 5 4 4 4 4 5 7 6 4 6 2 5 8 8 10 9 9 9 7 6 6 6 6 6 5 4 5 5 5 5 5 5 5 5 5 5 6 6 6 7 7 7 5 6 6 6 8
12 11 8 5 8 12 10 7 6 18 15 21 17 12 5 5 8 6 8 10 11 9 10 8 6 8 11 9 9 11 13 12 10 8 8 9 7 6 5 5 5 5 4 4 4 4 4 6 5 5 5 4 4 5 6 6 7 7 5 3 3 8 8 8 8 8 7 7 6 6 5 5 6 5 4 4 4 5 5 6 6 5 6 7 5 6 6 5 5 5 6 6 7 4 6 4 7
9 12 11 10 8 7 14 7 13 5 5 9 19 5 0 3 7 8 8 9 8 7 10 6 5 7 9 12 11 10 10 10 11 9 8 9 8 8 7 7 5 4 5 3 3 4 4 5 5 5 4 3 4 4 5 5 6 7 6 6 6 6 7 6 7 6 6 5 5 3 5 5 5 5 5 5 5 5 7 7 6 6 6 6 6 5 6 6 7 7 7 6 7 7 3 6 6
6 10 12 15 15 11 8 11 9 8 11 11 9 11 3 3 8 9 9 11 10 7 9 6 5 7 9 10 12 11 13 12 9 7 7 8 9 10 9 8 6 6 5 4 4 4 4 5 4 4 4 4 4 4 4 5 6 5 5 5 5 6 8 6 7 6 6 5 5 6 6 6 5 4 5 6 8 8 6 6 7 7 7 6 6 7 7 7 7 7 7 7 6 6 7 7 7
9 8 9 14 15 14 14 11 10 7 3 13 6 7 8 6 7 12 12 12 11 10 9 8 7 9 9 9 9 12 13 13 12 11 9 7 9 9 10 8 7 7 6 6 6 5 6 5 4 4 3 3 3 3 3 3 6 6 6 8 7 7 8 8 7 6 5 5 5 5 5 5 5 6 7 7 8 7 7 6 7 7 7 7 7 7 6 5 6 6 7 6 6 6 7 7 6
6 9 11 12 13 13 14 2 3 8 12 8 5 9 6 2 4 12 14 14 12 13 12 11 9 9 9 9 9 10 13 14 14 11 10 10 9 9 8 8 8 8 6 7 6 6 6 6 5 4 5 5 5 6 7 7 6 8 8 8 8 6 8 8 7 6 6 5 6 4 5 5 6 7 8 7 8 7 7 6 6 7 7 6 6 6 5 7 7 6 6 6 6 6 5 4 4
10 9 11 13 10 12 7 1 4 7 12 9 9 10 7 1 5 10 10 11 13 13 13 12 11 12 11 10 10 10 10 12 13 13 11 9 10 8 8 8 8 6 5 6 6 7 7 5 6 7 6 5 6 8 9 9 8 7 8 8 9 7 7 8 6 6 5 4 5 4 4 5 6 7 7 7 7 7 6 6 6 7 6 5 5 6 5 6 5 5 4 4 3 4 3 3 3
6 14 10 13 10 4 3 2 3 1 5 8 13 13 10 3 8 13 13 13 16 13 9 9 11 10 11 9 11 11 10 11 12 12 11 9 10 10 9 8 7 6 6 6 7 7 6 6 6 7 5 6 7 8 9 9 8 8 7 7 9 9 8 8 7 6 6 4 5 4 5 5 6 6 6 6 6 5 6 6 6 6 6 5 5 6 5 4 4 3 3 3 4 4 3 3 3
10 9 10 4 7 4 2 3 2 4 5 6 13 13 11 8 7 8 11 8 19 20 19 18 16 15 13 11 10 12 12 11 13 12 11 12 11 11 9 8 7 7 6 7 8 7 7 6 7 8 6 6 6 7 8 8 8 8 8 7 6 6 7 7 8 6 5 6 4 4 5 6 6 6 5 5 5 6 6 6 6 5 6 6 6 6 6 5 6 5 4 4 4 5 5 5 5
11 10 5 9 3 3 6 4 2 2 4 4 10 11 1 4 11 18 14 13 19 17 18 20 19 17 14 13 13 13 12 13 13 13 12 11 11 12 11 9 8 6 8 9 9 7 6 7 7 8 6 6 7 7 8 8 7 7 8 8 7 6 6 7 7 5 5 5 4 5 6 6 6 6 5 5 5 6 6 6 6 6 6 6 5 5 6 6 6 6 5 5 5 5 7 6 7
13 13 6 7 5 8 5 2 2 1 2 4 3 4 3 2 2 16 19 16 22 20 18 19 20 19 17 15 13 13 12 13 12 13 12 12 11 11 11 11 9 7 9 9 8 7 6 7 6 8 8 7 7 8 8 8 8 8 8 8 8 7 8 8 7 7 6 5 5 7 6 6 6 4 4 5 4 6 6 5 5 6 5 6 6 6 6 5 5 6 6 6 6 5 7 6 7
11 8 6 5 3 4 4 2 4 5 3 3 3 2 3 4 5 15 20 16 15 14 14 14 14 15 15 13 13 13 12 12 13 12 12 13 12 12 11 11 8 9 10 9 7 7 7 7 7 8 8 8 8 9 9 9 8 8 8 8 8 7 7 7 6 5 6 5 6 8 6 6 6 5 5 5 6 6 5 6 6 6 6 6 6 6 6 6 5 6 6 6 6 5 7 7 7
11 5 2 2 7 6 4 3 1 2 2 1 1 2 2 2 2 9 11 14 14 15 14 14 14 13 14 14 14 13 12 12 12 14 12 12 11 11 10 9 9 10 9 8 8 8 7 7 7 8 8 8 8 9 9 9 8 7 8 8 8 7 7 6 6 5 5 6 8 7 7 6 5 5 5 5 5 5 5 6 6 6 6 6 6 6 6 6 7 7 7 7 7 4 6 7 6
5 4 6 6 5 7 2 1 2 3 4 3 2 3 4 6 12 10 17 17 16 16 17 17 17 17 15 14 14 14 13 13 13 13 13 13 11 10 10 9 10 10 9 9 8 8 8 7 8 9 8 8 9 8 8 7 7 7 7 7 7 7 7 7 7 6 6 7 7 6 6 5 4 4 4 4 5 5 5 5 5 6 6 6 6 6 6 7 7 6 6 7 7 6 6 5 6
4 7 5 2 2 4 6 4 1 2 3 4 4 6 4 6 1 3 13 15 16 17 18 17 17 18 17 14 14 15 15 14 14 13 13 14 14 13 11 10 11 10 10 10 9 7 6 7 8 9 9 10 8 8 8 8 8 7 7 7 6 7 6 7 6 6 6 6 5 6 4 5 4 4 4 4 5 6 5 5 5 6 6 6 6 6 6 6 6 6 6 6 5 5 6 6 6
6 9 6 8 5 7 2 5 4 5 3 1 1 9 5 7 10 8 13 17 15 16 17 16 17 19 17 15 15 15 14 14 14 15 13 13 12 12 11 11 11 11 11 10 10 9 8 7 7 8 9 9 8 7 6 7 7 5 5 6 7 6 5 6 5 5 6 6 5 5 4 4 5 4 5 5 6 6 6 6 6 6 6 7 8 7 7 7 5 6 5 6 5 5 6 5 5
8 3 9 5 3 2 3 4 4 8 2 3 4 7 3 4 14 21 20 20 19 17 16 18 20 20 17 16 17 17 16 14 14 14 14 14 13 12 13 13 12 12 11 11 11 10 10 9 9 8 8 8 8 8 7 7 7 6 6 6 6 5 4 5 6 7 7 7 6 5 5 5 5 5 6 6 6 6 6 7 7 8 8 8 8 8 8 7 7 4 4 6 5 5 5 5 4
7 3 1 7 2 3 4 1 5 6 3 7 2 2 2 5 13 22 21 21 22 22 20 17 18 18 18 16 18 17 16 15 15 14 14 15 14 13 13 12 11 11 11 11 10 11 10 9 9 9 9 9 8 7 7 6 6 7 6 5 4 5 6 6 7 7 6 5 5 5 5 5 5 5 5 7 7 8 7 7 8 8 8 8 8 8 7 6 6 6 4 4 4 5 4 4 6
5 5 3 5 7 1 4 4 1 3 5 4 5 5 2 4 3 19 20 21 21 23 22 18 20 18 18 13 16 17 15 14 14 14 14 14 13 13 12 11 11 12 11 11 9 10 10 10 9 9 8 7 8 7 6 7 4 4 5 6 8 7 8 8 8 7 7 6 5 5 4 5 5 4 5 7 7 7 7 8 8 9 8 8 8 7 7 6 7 8 5 4 4 6 6 5 6
Wind_Direction
330 323 319 322 312 297 357 65 21 291 106 266 271 301 277 306 301 348 57 34 53 51 39 69 75 66 96 116 113 99 41 87 281 165 227 114 112 100 110 115 116 116 117 122 126 130 132 133 131 133 133 129 126 125 122 120 118 117 113 111 108 103 103 100 99 98 98 98 97 96 94 93 92 91 92 94 96 99 101 106 107 106 106 105 102 97 96 92 85 79 79 78 72 69 67 71 73
318 325 316 306 296 355 330 101 216 336 343 319 273 270 276 305 321 36 36 50 52 69 53 88 91 105 109 119 118 92 56 56 74 99 86 108 106 109 115 118 122 119 119 123 126 126 131 136 135 134 134 133 130 126 124 123 120 118 116 113 111 107 105 105 103 101 101 102 99 97 97 96 95 95 95 96 97 100 103 105 106 107 107 107 102 99 94 87 80 75 75 78 76 69 67 67 68
320 345 323 331 334 144 252 45 267 257 332 300 283 279 301 308 310 88 73 55 79 101 87 90 99 87 102 103 66 75 120 90 94 86 102 122 109 120 119 115 116 119 122 126 126 127 131 139 140 136 134 133 131 128 126 124 122 120 117 114 112 111 110 108 106 105 105 103 101 100 98 96 95 96 97 96 96 94 97 102 108 105 103 102 101 99 93 87 80 77 75 74 74 68 64 61 56
312 268 262 9 331 341 41 11 227 202 222 241 278 279 276 291 304 310 139 202 121 94 104 75 60 356 105 77 98 80 92 104 101 122 130 134 118 126 123 123 124 119 120 124 124 124 131 142 140 137 136 134 133 129 126 125 123 121 119 115 113 114 113 110 110 109 107 105 103 100 98 96 95 97 100 100 99 99 97 99 100 101 100 98 101 99 90 80 78 76 74 72 72 70 61 56 46
312 283 173 8 344 351 43 237 241 50 289 255 280 285 292 294 312 307 84 99 74 99 101 112 89 55 80 101 97 102 156 120 126 109 103 104 117 124 128 130 125 121 117 119 120 125 136 142 139 136 135 134 131 129 127 126 124 122 119 118 117 115 115 114 113 111 109 107 105 102 99 97 94 96 100 100 98 97 100 100 99 96 93 86 79 76 72 75 73 73 70 67 71 73 71 62 43
288 282 216 151 169 200 42 352 308 277 239 258 267 274 285 293 286 303 325 62 92 85 101 113 132 145 60 48 61 115 148 145 111 98 118 125 126 133 134 133 120 112 114 111 118 126 138 141 139 135 132 131 130 128 126 125 123 121 121 121 120 118 117 116 116 113 111 109 106 103 100 98 98 95 93 95 93 93 99 103 104 106 106 105 98 93 89 80 78 71 67 63 65 74 81 77 62
301 354 331 84 315 37 186 202 238 236 256 235 245 263 278 287 284 280 359 47 313 123 112 110 110 101 85 107 59 55 101 117 115 129 123 131 134 137 137 117 110 111 114 116 121 127 137 138 136 133 131 129 129 128 127 124 124 124 123 122 121 119 117 116 114 113 111 109 106 103 100 99 99 99 100 101 101 104 97 98 96 91 96 105 106 94 89 78 72 68 65 60 62 72 80 86 78
243 159 301 69 290 124 260 232 238 233 268 243 257 263 264 263 279 288 240 168 211 149 100 119 104 87 70 79 105 277 106 89 112 121 126 137 141 139 115 114 112 115 117 120 120 127 134 132 137 134 130 130 130 128 126 125 124 125 124 122 120 119 118 117 115 114 114 111 108 104 103 102 101 101 100 100 102 101 98 99 99 102 93 93 92 92 88 80 74 72 64 61 59 61 67 80 90
277 164 286 342 309 307 295 265 260 256 273 282 277 264 261 261 258 266 269 189 164 74 127 116 113 93 146 91 83 95 92 114 119 129 139 143 148 126 118 118 118 116 116 118 121 116 119 133 129 128 127 128 129 128 126 126 126 125 124 121 119 118 119 117 117 117 113 111 109 106 106 106 104 101 99 97 96 94 94 98 100 100 105 108 107 92 102 93 81 73 68 62 58 58 55 63 65
280 151 273 187 166 257 254 278 266 239 246 251 259 262 260 257 256 250 83 173 165 89 100 127 105 113 125 106 114 92 113 121 127 135 148 152 135 117 118 116 115 118 116 118 120 121 128 130 122 116 121 125 125 126 125 125 126 124 123 121 119 119 118 116 115 115 114 112 109 109 109 109 109 108 106 103 100 99 99 100 105 112 112 110 110 109 104 95 82 74 71 65 59 51 55 50 47
287 192 199 231 260 259 241 265 265 285 279 272 273 277 279 272 256 203 164 165 179 140 118 104 92 120 113 107 95 140 121 131 137 146 160 134 109 107 111 112 117 121 124 124 126 127 126 125 124 115 114 113 115 115 117 118 119 119 118 118 116 115 117 119 118 116 113 113 114 114 115 116 117 114 111 108 105 105 102 103 106 114 115 113 108 109 102 88 74 75 73 65 63 65 56 60 47
278 244 163 205 221 203 225 233 264 265 266 278 282 280 279 290 178 175 190 180 316 136 143 127 148 117 90 116 141 139 135 139 138 148 138 108 106 112 112 116 119 121 123 127 125 121 122 123 117 123 108 107 108 115 119 121 120 120 119 117 118 119 117 119 118 116 117 117 119 119 121 121 118 115 111 110 109 107 104 103 107 108 117 118 113 105 98 85 64 55 62 59 60 53 60 56 63
192 232 227 229 210 209 237 243 249 258 264 260 264 272 289 2 342 159 156 174 166 182 79 123 134 103 123 129 160 139 143 149 146 147 134 111 114 115 116 117 120 120 119 124 124 124 121 116 116 110 118 115 114 118 123 124 122 119 119 119 118 117 117 116 117 117 118 120 125 126 126 127 125 125 121 114 111 108 106 108 110 112 119 126 125 116 108 101 72 44 50 46 46 38 17 32 315
188 195 166 247 227 244 232 246 254 279 275 262 271 270 290 269 49 314 96 89 209 237 147 132 126 103 97 108 145 159 167 153 148 137 120 114 118 117 116 117 119 118 120 125 124 125 124 119 113 113 112 110 116 122 124 123 123 117 117 118 114 116 117 117 118 121 124 131 135 139 138 135 134 129 127 123 118 115 118 118 113 114 116 121 128 127 119 116 109 28 13 37 26 23 358 341 310
217 214 236 214 248 259 237 256 252 263 272 262 262 290 232 261 149 128 147 114 38 120 103 73 133 109 191 146 171 180 164 148 140 121 111 117 117 116 117 120 120 121 118 124 125 127 124 121 119 117 111 107 99 99 108 126 125 123 119 117 117 117 118 122 125 131 141 143 145 141 141 138 138 136 131 129 126 125 122 112 116 116 116 121 132 140 145 149 153 245 327 338 347 358 342 329 303
195 219 209 221 239 220 232 252 252 267 277 287 285 202 252 270 303 136 222 118 126 136 131 122 261 168 163 164 159 160 147 135 129 118 110 110 112 117 121 126 124 117 121 130 128 122 124 126 130 124 120 114 107 102 107 114 129 126 124 123 122 125 128 130 135 144 150 152 151 148 147 145 140 137 137 135 134 133 129 120 121 120 128 132 140 153 159 181 219 251 268 299 300 308 314 309 301
207 193 238 223 244 226 194 230 235 251 254 276 279 165 248 265 272 139 141 63 53 90 96 139 157 103 152 153 145 138 131 125 120 121 111 115 118 120 124 126 121 122 130 133 125 125 123 128 139 122 129 118 115 111 108 118 132 129 129 135 135 131 128 136 152 164 162 167 163 154 141 113 132 154 144 147 148 144 142 143 143 145 153 150 158 170 184 204 231 253 265 270 278 293 299 296 285
210 209 210 238 217 225 203 237 221 233 244 246 268 228 244 273 219 291 78 68 77 55 48 61 63 78 119 127 136 132 130 126 128 127 128 122 125 128 129 130 132 137 139 130 130 130 130 147 136 127 124 117 118 115 114 122 125 123 123 131 116 130 137 158 176 190 177 213 182 169 160 187 177 202 173 163 153 156 151 158 162 164 172 185 204 194 210 235 242 252 260 273 279 291 284 287 283
208 211 192 231 207 233 243 242 238 249 252 262 275 223 31 274 22 330 60 193 100 82 59 77 83 90 106 125 133 132 130 131 134 135 135 133 135 139 139 135 130 135 136 133 137 139 150 143 132 133 123 126 122 116 123 128 131 131 132 118 129 141 179 187 207 206 207 198 203 176 197 222 186 189 211 173 165 164 164 168 178 191 209 233 252 256 247 253 262 270 275 276 279 279 272 259 258
222 204 223 227 212 237 239 251 262 254 263 267 170 190 63 288 305 165 65 45 116 122 119 90 111 122 125 136 138 135 133 136 136 138 136 137 138 138 138 137 135 141 138 140 142 141 134 128 132 131 133 139 134 132 135 144 147 145 144 144 144 182 214 208 208 241 237 225 208 193 215 207 169 182 199 177 152 141 176 178 202 218 233 250 265 276 289 276 268 273 275 272 275 271 256 249 233
189 224 229 203 202 235 245 256 261 259 253 254 250 33 147 276 327 335 343 347 176 157 152 142 147 144 145 150 145 139 136 136 136 137 138 129 129 129 132 138 141 125 90 89 92 116 115 123 135 140 145 149 135 135 147 164 163 154 159 162 171 190 202 211 215 221 230 210 202 158 105 74 55 47 46 48 87 135 133 191 235 255 265 261 249 256 270 267 263 268 277 273 262 258 252 248 233
235 222 227 232 238 233 226 233 240 252 263 285 113 129 207 103 310 302 280 223 233 174 184 145 150 146 149 150 145 135 134 131 128 95 32 13 50 43 45 46 71 74 142 144 151 138 135 160 161 146 149 148 139 142 160 175 161 163 165 173 177 184 195 213 213 202 158 148 114 75 70 56 43 59 46 47 14 82 102 189 198 231 247 244 223 240 266 261 248 244 260 263 260 255 255 253 241
234 243 218 220 232 249 261 251 254 252 270 8 158 152 53 13 329 15 50 28 326 107 123 113 115 108 98 96 103 104 94 76 57 57 54 56 55 35 27 349 117 152 140 108 115 134 147 155 160 148 145 147 150 163 168 172 166 169 166 180 174 188 187 210 187 122 96 98 81 90 92 96 64 47 20 14 5 350 58 356 290 262 284 296 306 209 259 260 238 236 236 248 253 251 267 280 272
215 231 214 222 221 230 246 259 267 274 230 164 185 27 359 51 330 75 63 63 73 79 85 87 85 80 72 64 38 38 38 65 73 75 92 78 75 68 78 334 329 48 108 139 139 147 154 160 144 143 156 146 161 175 163 159 168 159 160 176 158 179 177 157 123 114 98 72 83 99 107 127 131 105 79 348 348 352 334 312 278 239 253 287 307 297 272 280 289 277 265 250 235 241 233 258 294
221 224 220 224 218 226 233 245 255 249 244 138 8 332 218 19 101 70 53 78 95 96 89 78 77 83 92 106 112 105 95 82 80 115 109 117 115 114 104 119 248 151 130 135 145 144 139 139 147 138 145 145 158 159 145 153 149 136 107 98 111 159 104 122 116 110 90 90 111 132 142 131 131 123 172 216 172 210 215 222 230 245 223 246 260 260 252 269 273 263 251 267 293 301 302 314 314
218 219 218 227 245 233 231 235 246 178 176 90 87 285 297 180 87 47 341 3 68 99 96 115 120 109 94 96 91 98 98 116 143 136 125 121 129 125 148 148 183 139 138 143 137 129 133 152 153 146 132 124 87 73 56 60 40 72 56 35 349 74 59 77 81 65 57 46 83 178 161 166 162 151 166 225 293 317 315 308 254 228 223 228 272 272 275 285 276 285 306 302 292 317 339 316 331
197 219 219 218 229 250 259 235 246 195 159 131 179 283 282 318 95 59 309 67 88 88 92 92 100 103 101 100 109 121 117 116 120 120 118 128 149 142 156 170 150 142 144 143 135 140 151 162 137 96 83 81 83 84 78 86 89 96 89 105 37 58 39 42 47 35 20 330 310 263 193 198 164 146 143 160 206 218 272 257 229 189 269 195 217 250 269 249 269 325 318 333 332 328 309 297 305
249 212 214 223 238 236 253 250 274 120 172 136 138 235 221 268 54 153 137 89 104 100 101 104 99 102 110 115 120 125 118 133 138 144 148 153 156 152 165 153 141 147 144 139 130 98 69 72 85 73 74 86 89 85 82 90 78 70 67 51 41 26 42 52 66 56 92 340 316 302 232 233 211 191 167 167 198 183 214 16 18 346 339 257 174 211 292 327 337 313 327 322 341 357 330 322 304
240 243 234 215 219 229 243 246 246 191 208 164 142 282 249 21 135 206 105 117 101 104 103 104 108 112 112 104 99 101 123 135 130 118 87 81 136 184 162 148 146 137 103 118 114 93 82 70 84 73 68 70 86 88 65 74 79 66 59 50 45 50 60 73 52 20 71 69 299 297 283 250 250 164 161 132 121 91 80 27 13 7 323 343 4 360 345 340 348 358 353 348 346 356 349 330 330
249 241 239 240 225 226 225 242 244 184 168 153 121 229 153 101 109 123 134 128 105 100 111 117 117 116 112 112 112 112 114 119 111 117 133 140 190 239 164 148 133 121 123 120 114 110 118 103 98 87 86 90 93 107 114 97 86 81 91 73 65 68 56 66 72 34 34 68 29 326 320 315 132 95 42 44 69 50 52 30 18 5 339 350 18 13 5 5 1 13 356 359 358 356 343 331 335
231 239 231 219 231 242 200 224 210 220 159 176 150 206 125 111 126 128 140 145 115 110 116 116 115 113 115 115 119 121 126 121 129 140 139 133 194 202 140 125 123 119 120 122 117 122 112 111 101 94 98 97 93 89 91 89 80 88 86 83 81 70 67 72 59 53 20 59 67 347 313 280 329 28 67 82 73 63 62 45 32 332 340 334 28 16 19 10 3 21 11 2 344 342 331 325 325
218 219 222 229 204 217 208 227 231 200 179 180 155 205 157 157 157 148 123 117 114 110 116 116 116 121 125 127 127 133 144 150 147 153 153 145 146 149 142 134 130 128 127 131 120 119 117 117 113 108 103 104 106 106 97 98 100 91 95 98 104 87 74 69 66 58 53 40 72 13 291 285 13 36 57 61 78 96 57 51 88 276 267 349 29 21 29 14 359 355 349 347 351 324 325 315 316
226 205 207 220 190 213 183 222 225 186 176 181 203 174 116 143 164 140 133 138 121 120 124 123 121 125 131 136 138 140 137 147 162 193 171 148 149 155 143 136 138 133 132 135 134 128 124 125 122 120 119 121 125 117 105 110 111 104 99 83 79 82 77 78 62 75 51 35 50 17 291 273 339 32 29 29 49 73 86 29 8 13 31 35 34 29 27 18 11 359 353 343 332 304 312 303 312
233 201 196 199 195 155 220 273 264 188 182 220 197 178 174 131 141 147 126 130 122 121 130 126 128 130 132 137 141 145 150 157 177 183 186 136 139 141 136 126 124 130 133 136 140 138 134 133 127 120 122 120 123 125 116 114 111 99 88 89 92 82 79 79 79 71 86 110 94 284 266 23 37 39 36 40 56 60 64 58 43 39 40 41 40 37 31 18 19 21 6 354 353 346 327 321 335
197 193 183 207 219 187 189 182 245 212 190 204 196 172 128 130 148 152 141 138 124 127 131 133 130 129 134 137 146 149 147 143 146 355 100 115 125 125 117 116 118 121 127 132 131 124 122 123 122 123 122 126 122 114 120 114 105 99 101 109 91 87 94 93 88 83 97 133 145 200 37 36 42 42 39 37 45 54 58 53 47 39 45 44 43 36 29 18 16 13 10 348 348 341 342 4 0
203 185 162 191 190 219 210 199 220 211 189 199 194 144 142 144 150 156 149 137 126 122 117 120 123 126 129 131 129 126 122 99 77 74 64 40 30 77 95 94 104 114 115 118 119 117 120 122 119 113 119 126 119 115 125 112 106 122 118 99 82 83 91 90 99 118 169 93 70 57 42 35 36 46 43 38 38 41 47 51 46 38 39 40 39 38 31 21 11 8 2 351 347 342 350 9 357
215 196 195 198 213 234 229 226 216 205 191 192 173 128 133 150 148 155 151 129 124 128 127 130 134 136 133 129 128 124 106 109 105 78 87 77 62 61 72 82 94 101 119 129 124 128 132 133 126 117 119 124 131 135 135 136 127 116 95 106 112 109 111 123 120 103 76 63 60 58 49 44 42 44 44 41 39 38 38 36 43 35 30 24 26 29 26 15 9 10 358 345 351 355 353 3 355
230 200 203 202 202 228 233 235 231 196 178 180 122 127 132 136 152 149 124 127 135 136 133 132 136 136 138 139 131 121 111 102 109 96 98 96 85 90 93 103 119 126 140 133 134 135 132 122 114 118 122 131 141 139 137 136 160 150 137 141 128 131 146 126 97 80 75 65 59 57 53 49 49 49 48 47 43 40 36 33 38 43 34 24 21 16 23 21 18 18 13 10 359 7 359 357 359
236 223 198 197 200 209 229 243 249 194 159 141 127 122 138 137 139 146 123 129 136 140 138 140 139 138 136 136 126 120 121 126 121 112 110 122 124 106 102 117 123 129 136 139 141 124 115 111 115 122 129 134 139 133 122 131 117 91 98 140 145 131 97 97 94 88 80 77 67 60 56 50 50 48 43 45 47 38 37 37 30 38 41 32 25 22 27 31 21 18 15 22 2 5 356 4 18
235 232 203 205 192 185 215 236 248 200 165 128 123 113 113 106 99 106 92 94 106 108 120 133 135 133 132 134 134 135 136 138 139 130 132 137 138 120 119 120 122 134 143 145 136 115 105 103 113 117 117 124 126 117 114 100 89 83 83 121 141 101 109 92 82 77 76 73 63 59 52 48 48 52 44 43 50 42 41 36 26 28 27 22 37 46 39 33 22 22 22 28 26 19 4 7 22
237 227 222 218 210 191 192 217 67 73 93 119 103 79 77 110 130 116 95 102 99 99 92 80 83 131 132 121 133 148 144 145 142 135 139 141 145 141 138 129 135 143 136 129 113 100 104 108 112 115 121 121 125 121 109 105 101 97 115 149 129 99 86 82 77 71 71 76 75 56 55 53 50 49 43 43 47 48 42 40 33 24 31 30 43 50 44 29 32 38 36 36 32 27 25 11 16
240 238 227 234 240 206 198 167 106 86 77 149 121 81 180 195 153 135 131 117 119 120 110 104 102 129 136 142 146 150 141 142 145 143 145 145 148 140 137 139 144 124 118 116 97 96 111 114 116 118 118 126 128 123 121 117 115 123 129 130 113 96 86 75 80 87 84 78 85 87 59 52 48 43 39 39 35 42 47 44 39 32 32 33 42 46 37 30 34 37 33 41 34 26 46 38 23
220 232 226 239 248 263 229 193 106 140 151 215 150 130 190 202 169 160 144 133 130 128 125 135 145 153 157 156 151 154 147 136 130 134 140 148 150 142 145 147 139 121 114 118 115 119 117 113 116 122 127 127 129 132 131 121 122 119 116 106 98 97 94 79 84 80 83 83 76 63 58 42 44 48 40 46 42 39 41 43 43 37 35 40 38 36 34 38 41 43 39 41 35 28 34 45 33
225 229 225 231 244 246 254 230 160 177 137 184 204 119 135 182 211 160 148 135 144 141 147 156 171 172 169 158 162 154 148 144 139 147 152 152 147 146 145 135 129 128 125 126 126 123 122 121 112 103 99 106 113 120 117 135 136 130 116 105 103 97 97 100 91 83 74 78 79 77 75 61 45 44 43 46 48 41 38 39 41 40 41 41 39 36 45 48 52 47 45 42 35 36 40 44 33
214 226 230 238 233 243 246 278 170 158 145 194 212 114 81 175 186 149 151 141 156 163 157 176 178 178 169 163 168 163 150 145 144 147 154 154 145 141 133 127 126 124 127 131 132 125 111 111 110 102 91 90 88 81 72 63 84 109 109 107 102 102 107 103 97 93 86 74 78 69 75 68 58 51 49 48 44 39 39 46 42 42 44 42 40 38 47 54 55 55 46 42 40 35 41 48 47
210 227 234 245 242 240 244 254 160 169 144 188 199 164 122 173 159 147 168 154 165 166 171 183 181 177 175 170 171 164 156 146 145 145 146 147 135 129 122 123 123 127 131 129 122 114 109 107 103 96 84 79 80 76 74 69 70 89 103 106 106 103 100 101 104 105 94 82 84 69 63 70 63 54 47 47 47 39 42 47 45 43 40 39 43 38 45 56 56 60 55 57 52 49 38 52 51
173 225 237 240 242 257 279 196 141 55 198 201 183 166 130 156 199 172 164 196 172 159 171 182 178 177 175 177 172 158 156 148 143 141 141 133 130 125 128 132 132 131 138 133 117 114 113 106 105 95 91 87 84 85 84 79 72 70 86 97 107 113 109 111 109 100 104 89 88 83 81 77 69 62 54 49 47 44 44 45 42 41 39 37 40 36 36 48 58 60 52 49 47 53 41 44 28
208 206 220 196 254 277 293 289 101 164 264 226 181 182 158 129 208 217 208 155 158 164 173 178 177 177 175 173 171 157 154 149 143 142 142 136 131 132 134 142 150 149 139 124 119 119 118 118 111 105 97 90 89 90 87 84 79 75 73 78 89 106 115 118 117 130 123 117 111 88 73 69 61 58 51 57 49 45 48 42 39 39 37 36 37 34 33 39 45 38 26 38 40 37 30 34 34
225 222 182 164 219 173 229 224 259 140 202 226 188 182 204 188 180 190 189 162 167 171 170 175 173 171 171 172 166 158 152 149 147 143 143 143 143 144 147 160 160 152 133 130 130 129 126 121 118 113 103 91 83 86 90 90 88 83 82 75 66 61 77 102 114 116 123 121 108 90 80 77 67 59 42 57 59 56 51 45 38 38 36 32 35 36 35 44 48 33 28 25 36 44 41 42 39
211 215 171 158 165 191 213 232 141 26 298 28 136 154 211 139 231 181 172 179 168 168 170 168 168 166 166 167 161 155 152 150 146 143 146 148 147 147 156 166 162 144 136 136 137 134 129 123 119 110 102 95 88 80 82 81 79 79 78 76 70 68 73 85 91 94 96 98 102 90 88 87 80 74 57 51 59 64 55 50 45 41 37 35 37 38 40 39 48 42 30 24 27 41 47 41 39
209 220 155 162 157 157 192 160 180 191 198 211 230 90 223 122 257 183 175 161 147 148 151 158 155 153 155 156 150 147 147 146 143 144 149 149 149 152 162 165 158 143 142 140 136 130 126 123 117 106 100 94 87 81 76 76 77 79 77 77 82 78 81 85 89 97 104 103 84 89 92 90 90 78 67 57 57 65 61 50 49 45 36 36 38 40 39 37 36 38 31 27 29 41 50 46 42
206 196 112 172 232 138 143 202 114 156 165 173 204 164 298 135 236 106 108 121 129 136 145 144 148 150 156 156 155 151 148 145 147 145 147 146 148 154 160 168 151 146 143 136 133 130 125 126 116 108 106 99 90 84 85 86 84 83 82 88 89 92 92 93 98 99 94 88 96 100 98 98 97 87 74 65 57 72 66 60 54 47 41 39 38 43 44 42 35 35 29 24 26 26 46 48 45
212 173 204 202 200 117 117 116 108 108 67 262 165 15 12 61 34 112 132 134 141 142 152 157 157 160 159 158 157 151 151 148 149 151 149 148 150 163 170 163 149 145 139 137 136 133 131 124 118 115 106 96 96 98 95 91 89 87 88 90 95 94 99 105 109 105 85 86 97 98 100 109 104 96 89 74 71 70 77 72 61 54 46 40 39 39 44 45 40 37 32 28 28 28 41 40 44
145 205 232 184 179 113 132 177 108 114 138 253 110 143 174 115 204 276 138 139 149 149 158 159 156 158 159 163 158 157 155 150 146 149 151 153 159 170 167 153 148 143 139 138 134 128 121 120 120 113 107 105 104 101 102 102 100 97 98 101 103 109 114 119 120 107 98 101 94 97 98 94 102 104 99 89 76 66 58 63 63 56 49 42 38 35 38 38 44 35 30 29 32 40 40 37 39
156 196 186 180 197 212 292 106 166 136 169 281 263 160 187 159 150 160 158 154 156 156 155 149 157 162 164 163 157 154 148 149 152 156 156 154 163 168 157 148 146 141 140 136 129 124 120 117 115 111 111 111 108 105 105 104 103 107 113 117 121 125 134 125 115 104 104 97 96 96 94 96 84 83 86 81 79 73 67 57 55 51 45 42 34 29 28 30 30 43 30 32 24 43 46 47 44
254 149 169 169 121 168 134 196 163 121 210 136 283 154 218 200 157 168 166 164 162 154 161 165 167 167 166 162 158 158 157 160 159 158 158 157 165 161 155 150 149 147 141 136 134 128 125 124 117 111 105 106 107 106 109 113 119 128 142 142 148 147 129 117 116 111 101 104 106 100 94 83 89 85 84 83 78 76 68 62 54 51 44 39 35 26 22 23 20 19 37 32 30 47 51 51 45
239 214 243 167 212 188 145 205 153 161 159 173 186 244 258 217 164 164 165 165 164 164 171 165 169 170 172 161 160 159 158 162 163 161 160 160 160 157 154 150 146 139 136 137 137 135 132 129 124 119 118 120 119 125 129 135 144 158 150 151 147 125 112 107 104 104 107 109 108 108 105 106 92 90 94 89 86 79 72 65 59 53 47 40 34 26 17 16 19 9 6 37 40 47 48 47 52
201 148 198 168 185 217 194 281 244 141 126 184 158 232 261 283 157 162 164 167 168 172 171 160 168 169 171 155 158 154 155 161 159 160 159 159 155 153 152 147 140 139 141 140 138 135 132 130 131 126 125 128 134 151 153 150 146 127 126 120 109 105 101 98 96 99 101 99 99 99 104 94 96 90 83 84 83 80 74 68 63 55 48 40 32 27 16 12 15 9 351 35 41 45 37 40 60